Weather History for Freeport, IL

Change the Weather History Date:

Wednesday, April 11, 2012

  Actual Average Record
Temperature  
Mean Temperature 39 °F -  
Max Temperature 54 °F 56 °F 83 °F (1977)
Min Temperature 25 °F 34 °F 21 °F (1989)
Degree Days  
Heating Degree Days 26    
Moisture  
Dew Point 21 °F    
Average Humidity 50    
Maximum Humidity 73    
Minimum Humidity 28    
Precipitation  
Precipitation 0.00 in - - ()
Sea Level Pressure  
Sea Level Pressure 30.27 in    
Wind  
Wind Speed 6 mph (NW)    
Max Wind Speed 10 mph    
Max Gust Speed 21 mph    
Visibility 10 miles    
Events      
Averages and records for this station are not official NWS values.
T = Trace of Precipitation, MM = Missing Value Source: NWS Daily Summary

Daily Weather History Graph

Daily Weather History Graph

Search for Another Location

Airport:

Trip Planner

Search our weather history database for the weather conditions in past years. The results will help you decide how hot, cold, wet, or windy it might be!

Date:

Astronomy

Apr. 11, 2012 Rise Set
Actual Time 6:23 AM CDT 7:35 PM CDT
Civil Twilight 5:54 AM CDT 8:04 PM CDT
Nautical Twilight 5:19 AM CDT 8:39 PM CDT
Astronomical Twilight 4:43 AM CDT 9:16 PM CDT
Moon 12:35 AM CDT (4/11) 10:06 AM CDT (4/11)
Length of Visible Light 14h 10m
Length of Day
13h 12m
Waning Gibbous, 69% of the Moon is Illuminated
Apr 11
Waning Gibbous
Apr 13
Last Quarter
Apr 21
New
Apr 29
First Quarter
May 5
Full

Hourly Weather History & Observations

Time (CDT) Temp. Windchill Dew Point Humidity Pressure Visibility Wind Dir Wind Speed Gust Speed Precip Events Conditions
12:15 AM 27.0 °F 20.5 °F 17.2 °F 67% 30.21 in 10.0 mi NW 5.8 mph - N/A   Clear
12:35 AM 25.3 °F 17.6 °F 16.2 °F 68% 30.21 in 10.0 mi WNW 6.9 mph - N/A   Clear
12:55 AM 25.5 °F 19.9 °F 16.5 °F 69% 30.21 in 10.0 mi WNW 4.6 mph - N/A   Clear
1:15 AM 27.5 °F 21.1 °F 17.1 °F 65% 30.21 in 10.0 mi WNW 5.8 mph - N/A   Clear
1:35 AM 27.1 °F 19.7 °F 17.4 °F 67% 30.21 in 10.0 mi NW 6.9 mph - N/A   Clear
1:55 AM 26.2 °F 20.7 °F 17.2 °F 69% 30.21 in 10.0 mi WNW 4.6 mph - N/A   Clear
2:15 AM 27.1 °F 20.7 °F 17.2 °F 66% 30.22 in 10.0 mi WNW 5.8 mph - N/A   Clear
2:35 AM 27.1 °F 20.7 °F 17.6 °F 67% 30.22 in 10.0 mi WNW 5.8 mph - N/A   Clear
2:55 AM 29.3 °F 23.2 °F 19.2 °F 66% 30.22 in 10.0 mi West 5.8 mph - N/A   Clear
3:15 AM 28.0 °F 21.7 °F 18.1 °F 66% 30.23 in 10.0 mi WNW 5.8 mph - N/A   Clear
3:35 AM 27.7 °F 21.3 °F 17.8 °F 66% 30.23 in 10.0 mi WNW 5.8 mph - N/A   Clear
3:55 AM 29.3 °F 22.3 °F 19.2 °F 66% 30.24 in 10.0 mi WNW 6.9 mph - N/A   Clear
4:15 AM 27.0 °F 19.5 °F 17.6 °F 68% 30.24 in 10.0 mi WNW 6.9 mph - N/A   Clear
4:35 AM 27.0 °F 20.5 °F 17.6 °F 68% 30.25 in 10.0 mi WNW 5.8 mph - N/A   Clear
4:55 AM 27.0 °F 18.7 °F 18.0 °F 69% 30.25 in 10.0 mi WNW 8.1 mph - N/A   Clear
5:15 AM 27.0 °F 18.7 °F 18.0 °F 69% 30.25 in 10.0 mi WNW 8.1 mph - N/A   Clear
5:35 AM 27.0 °F 19.5 °F 18.1 °F 69% 30.26 in 10.0 mi West 6.9 mph - N/A   Clear
5:55 AM 27.3 °F 20.9 °F 17.8 °F 67% 30.26 in 10.0 mi WSW 5.8 mph - N/A   Clear
6:15 AM 27.0 °F 19.5 °F 17.6 °F 68% 30.27 in 10.0 mi West 6.9 mph - N/A   Clear
6:35 AM 27.0 °F 20.5 °F 17.6 °F 68% 30.27 in 10.0 mi West 5.8 mph - N/A   Clear
6:55 AM 29.1 °F 21.3 °F 18.9 °F 66% 30.28 in 10.0 mi West 8.1 mph - N/A   Clear
7:15 AM 30.2 °F 24.3 °F 19.4 °F 64% 30.29 in 10.0 mi WNW 5.8 mph - N/A   Clear
7:35 AM 32.0 °F 23.6 °F 20.3 °F 62% 30.29 in 10.0 mi WNW 10.4 mph - N/A   Clear
7:55 AM 32.0 °F 24.2 °F 19.2 °F 59% 30.30 in 10.0 mi NW 9.2 mph 17.3 mph N/A   Clear
8:15 AM 32.9 °F 24.7 °F 19.2 °F 57% 30.30 in 10.0 mi NW 10.4 mph - N/A   Clear
8:35 AM 34.3 °F 27.0 °F 20.1 °F 56% 30.31 in 10.0 mi NW 9.2 mph - N/A   Clear
8:55 AM 36.7 °F 30.5 °F 20.8 °F 53% 30.31 in 10.0 mi NNW 8.1 mph - N/A   Clear
9:15 AM 36.7 °F 31.2 °F 19.9 °F 51% 30.32 in 10.0 mi NNW 6.9 mph - N/A   Clear
9:35 AM 39.2 °F 34.2 °F 21.0 °F 48% 30.31 in 10.0 mi NNW 6.9 mph - N/A   Clear
9:55 AM 41.9 °F 38.2 °F 22.1 °F 45% 30.32 in 10.0 mi NW 5.8 mph - N/A   Clear
10:15 AM 41.9 °F 37.5 °F 21.2 °F 44% 30.32 in 10.0 mi NNW 6.9 mph - N/A   Clear
10:35 AM 43.9 °F 39.9 °F 21.6 °F 41% 30.32 in 10.0 mi North 6.9 mph - N/A   Clear
10:55 AM 44.2 °F 39.2 °F 21.7 °F 41% 30.32 in 10.0 mi North 9.2 mph - N/A   Clear
11:15 AM 45.3 °F 42.3 °F 22.3 °F 40% 30.32 in 10.0 mi NNW 5.8 mph - N/A   Clear
11:35 AM 46.6 °F - 22.3 °F 38% 30.32 in 10.0 mi NW 10.4 mph - N/A   Clear
11:55 AM 47.1 °F - 21.9 °F 37% 30.31 in 10.0 mi NW 5.8 mph - N/A   Clear
12:15 PM 49.3 °F - 23.5 °F 36% 30.31 in 10.0 mi NNW 10.4 mph 16.1 mph N/A   Clear
12:35 PM 50.0 °F - 23.0 °F 35% 30.31 in 10.0 mi NNW 8.1 mph 20.7 mph N/A   Clear
12:55 PM 50.9 °F - 21.2 °F 31% 30.31 in 10.0 mi NE 5.8 mph 19.6 mph N/A   Clear
1:15 PM 51.8 °F - 23.0 °F 33% 30.30 in 10.0 mi ENE 4.6 mph - N/A   Clear
1:35 PM 52.0 °F - 22.5 °F 32% 30.29 in 10.0 mi North 10.4 mph - N/A   Clear
1:55 PM 52.0 °F - 22.6 °F 32% 30.29 in 10.0 mi North 5.8 mph - N/A   Clear
2:15 PM 52.0 °F - 23.2 °F 33% 30.29 in 10.0 mi North 8.1 mph - N/A   Clear
2:35 PM 52.2 °F - 21.2 °F 30% 30.29 in 10.0 mi NNW 10.4 mph 16.1 mph N/A   Scattered Clouds
2:55 PM 52.2 °F - 21.6 °F 30% 30.29 in 10.0 mi North 8.1 mph - N/A   Scattered Clouds
3:15 PM 52.0 °F - 20.8 °F 30% 30.28 in 10.0 mi NW 5.8 mph 9.2 mph N/A   Clear
3:35 PM 53.1 °F - 21.6 °F 29% 30.27 in 10.0 mi WNW 6.9 mph - N/A   Clear
3:55 PM 53.2 °F - 22.3 °F 30% 30.27 in 10.0 mi NW 8.1 mph - N/A   Scattered Clouds
4:15 PM 52.0 °F - 20.7 °F 29% 30.27 in 10.0 mi NE 4.6 mph - N/A   Scattered Clouds
4:35 PM 52.9 °F - 20.3 °F 28% 30.27 in 10.0 mi Calm Calm - N/A   Clear
4:55 PM 53.2 °F - 21.6 °F 29% 30.26 in 10.0 mi NNE 8.1 mph - N/A   Clear
5:15 PM 52.7 °F - 20.1 °F 28% 30.27 in 10.0 mi Calm Calm - N/A   Clear
5:35 PM 52.0 °F - 19.6 °F 28% 30.27 in 10.0 mi Calm Calm - N/A   Clear
5:55 PM 52.0 °F - 20.7 °F 29% 30.27 in 10.0 mi NNE 6.9 mph - N/A   Clear
6:15 PM 52.0 °F - 21.6 °F 30% 30.27 in 10.0 mi North 5.8 mph - N/A   Clear
6:35 PM 52.0 °F - 21.4 °F 30% 30.27 in 10.0 mi NNW 5.8 mph - N/A   Clear
6:55 PM 51.8 °F - 23.0 °F 33% 30.26 in 10.0 mi Calm Calm - N/A   Clear
7:15 PM 52.0 °F - 23.5 °F 33% 30.26 in 10.0 mi NNE 3.5 mph - N/A   Clear
7:35 PM 49.5 °F - 22.5 °F 35% 30.26 in 10.0 mi NE 3.5 mph - N/A   Clear
7:55 PM 46.6 °F - 21.6 °F 37% 30.26 in 10.0 mi Calm Calm - N/A   Clear
8:15 PM 43.0 °F 41.3 °F 22.8 °F 45% 30.26 in 10.0 mi East 3.5 mph - N/A   Clear
8:35 PM 41.9 °F - 24.4 °F 50% 30.27 in 10.0 mi Calm Calm - N/A   Clear
8:55 PM 39.2 °F - 24.6 °F 56% 30.27 in 10.0 mi Calm Calm - N/A   Clear
9:15 PM 39.2 °F - 24.8 °F 56% 30.27 in 10.0 mi Calm Calm - N/A   Clear
9:35 PM 39.2 °F - 25.0 °F 57% 30.27 in 10.0 mi Calm Calm - N/A   Clear
9:55 PM 41.9 °F - 23.7 °F 49% 30.27 in 10.0 mi Calm Calm - N/A   Clear
10:15 PM 41.5 °F - 23.9 °F 50% 30.27 in 10.0 mi Calm Calm - N/A   Clear
10:35 PM 36.7 °F - 24.6 °F 62% 30.27 in 10.0 mi Calm Calm - N/A   Clear
10:55 PM 36.7 °F - 26.4 °F 66% 30.26 in 10.0 mi Calm Calm - N/A   Clear
11:15 PM 33.6 °F 26.8 °F 25.9 °F 73% 30.26 in 10.0 mi ENE 8.1 mph - N/A   Clear
11:35 PM 36.7 °F 32.9 °F 27.0 °F 68% 30.26 in 10.0 mi SE 4.6 mph - N/A   Clear
11:55 PM 34.2 °F 27.5 °F 26.2 °F 73% 30.26 in 10.0 mi SE 8.1 mph - N/A   Clear